Weather History for KCIU - April, 2013

Change the Weather History Date:

Monday, April 22, 2013

  Actual Average Record
Temperature  
Mean Temperature 42 °F -  
Max Temperature 50 °F 54 °F 78 °F (2007)
Min Temperature 33 °F 28 °F 20 °F (1982)
Degree Days  
Heating Degree Days 24    
Moisture  
Dew Point 30 °F    
Average Humidity 69    
Maximum Humidity 93    
Minimum Humidity 47    
Precipitation  
Precipitation 0.00 in - - ()
Sea Level Pressure  
Sea Level Pressure 30.26 in    
Wind  
Wind Speed 15 mph (SE)    
Max Wind Speed 21 mph    
Max Gust Speed 25 mph    
Visibility 10 miles    
Events      
Averages and records for this station are not official NWS values.
T = Trace of Precipitation, MM = Missing Value Source: NWS Daily Summary

Daily Weather History Graph

Daily Weather History Graph

Search for Another Location

Airport or City:

Trip Planner

Search our weather history database for the weather conditions in past years. The results will help you decide how hot, cold, wet, or windy it might be!

Date:

Astronomy

Apr. 22, 2013 Rise Set
Actual Time 6:38 AM EDT 8:35 PM EDT
Civil Twilight 6:06 AM EDT 9:07 PM EDT
Nautical Twilight 5:26 AM EDT 9:47 PM EDT
Astronomical Twilight 4:43 AM EDT 10:30 PM EDT
Moon 5:13 PM EDT (4/22) 4:44 AM EDT (4/22)
Length of Visible Light 15h 01m
Length of Day
13h 56m
Waxing Gibbous, 87% of the Moon is Illuminated
Apr 22
Waxing Gibbous
Apr 25
Full
May 2
Last Quarter
May 9
New
May 18
First Quarter

Hourly Weather History & Observations

Time (EDT) Temp. Windchill Dew Point Humidity Pressure Visibility Wind Dir Wind Speed Gust Speed Precip Events Conditions
12:15 AM 35.6 °F 25.2 °F 30.2 °F 81% 30.37 in 10.0 mi SE 18.4 mph 24.2 mph N/A   Overcast
12:35 AM 35.6 °F 24.5 °F 30.2 °F 81% 30.36 in 10.0 mi SE 20.7 mph 24.2 mph N/A   Overcast
12:55 AM 35.6 °F 25.2 °F 30.2 °F 81% 30.36 in 10.0 mi SE 18.4 mph - N/A   Overcast
1:15 AM 35.6 °F 24.5 °F 30.2 °F 81% 30.35 in 10.0 mi SE 20.7 mph 25.3 mph N/A   Overcast
1:35 AM 35.6 °F 24.8 °F 30.2 °F 81% 30.35 in 10.0 mi SE 19.6 mph - N/A   Overcast
1:55 AM 35.6 °F 24.8 °F 30.2 °F 81% 30.35 in 10.0 mi SE 19.6 mph 24.2 mph N/A   Overcast
2:15 AM 35.6 °F 24.8 °F 30.2 °F 81% 30.34 in 10.0 mi SE 19.6 mph - N/A   Mostly Cloudy
2:35 AM 35.6 °F 24.8 °F 30.2 °F 81% 30.32 in 10.0 mi SE 19.6 mph 23.0 mph N/A   Partly Cloudy
3:15 AM 35.6 °F 25.5 °F 32.0 °F 87% 30.32 in 10.0 mi SE 17.3 mph - N/A   Scattered Clouds
3:35 AM 33.8 °F 23.5 °F 32.0 °F 93% 30.31 in 10.0 mi SSE 16.1 mph - N/A   Scattered Clouds
3:55 AM 35.6 °F 25.2 °F 32.0 °F 87% 30.30 in 10.0 mi SE 18.4 mph - N/A   Scattered Clouds
4:15 AM 35.6 °F 25.9 °F 32.0 °F 87% 30.30 in 10.0 mi SE 16.1 mph - N/A   Scattered Clouds
4:35 AM 35.6 °F 25.2 °F 30.2 °F 81% 30.29 in 10.0 mi SE 18.4 mph - N/A   Scattered Clouds
4:55 AM 35.6 °F 25.9 °F 30.2 °F 81% 30.29 in 10.0 mi SE 16.1 mph 20.7 mph N/A   Partly Cloudy
5:15 AM 35.6 °F 27.5 °F 30.2 °F 81% 30.31 in 10.0 mi SSE 11.5 mph - N/A   Mostly Cloudy
5:35 AM 35.6 °F 26.6 °F 30.2 °F 81% 30.31 in 10.0 mi SE 13.8 mph - N/A   Overcast
5:55 AM 35.6 °F 26.2 °F 30.2 °F 81% 30.31 in 10.0 mi SE 15.0 mph - N/A   Mostly Cloudy
6:15 AM 35.6 °F 25.5 °F 30.2 °F 81% 30.30 in 10.0 mi SE 17.3 mph - N/A   Mostly Cloudy
6:35 AM 35.6 °F 25.5 °F 30.2 °F 81% 30.30 in 10.0 mi SE 17.3 mph - N/A   Mostly Cloudy
6:55 AM 35.6 °F 25.9 °F 30.2 °F 81% 30.30 in 10.0 mi SE 16.1 mph - N/A   Partly Cloudy
7:15 AM 35.6 °F 26.2 °F 30.2 °F 81% 30.30 in 10.0 mi SE 15.0 mph - N/A   Scattered Clouds
7:35 AM 35.6 °F 26.2 °F 30.2 °F 81% 30.30 in 10.0 mi SE 15.0 mph - N/A   Scattered Clouds
7:55 AM 35.6 °F 27.5 °F 30.2 °F 81% 30.31 in 10.0 mi SE 11.5 mph - N/A   Scattered Clouds
8:15 AM 35.6 °F 27.5 °F 30.2 °F 81% 30.31 in 10.0 mi SE 11.5 mph - N/A   Mostly Cloudy
8:35 AM 35.6 °F 26.2 °F 30.2 °F 81% 30.31 in 10.0 mi SE 15.0 mph - N/A   Mostly Cloudy
8:55 AM 35.6 °F 25.9 °F 30.2 °F 81% 30.30 in 10.0 mi SE 16.1 mph - N/A   Mostly Cloudy
9:15 AM 35.6 °F 25.5 °F 30.2 °F 81% 30.30 in 10.0 mi SE 17.3 mph - N/A   Partly Cloudy
9:35 AM 37.4 °F 27.8 °F 28.4 °F 70% 30.30 in 10.0 mi SE 17.3 mph - N/A   Mostly Cloudy
9:55 AM 37.4 °F 29.3 °F 28.4 °F 70% 30.30 in 10.0 mi SSE 12.7 mph 19.6 mph N/A   Overcast
10:15 AM 37.4 °F 28.5 °F 28.4 °F 70% 30.30 in 10.0 mi SE 15.0 mph - N/A   Overcast
10:35 AM 37.4 °F 29.8 °F 28.4 °F 70% 30.31 in 10.0 mi SE 11.5 mph - N/A   Overcast
10:55 AM 37.4 °F 28.9 °F 30.2 °F 75% 30.31 in 10.0 mi SSE 13.8 mph - N/A   Overcast
11:15 AM 37.4 °F 28.9 °F 30.2 °F 75% 30.31 in 10.0 mi SSE 13.8 mph - N/A   Overcast
11:35 AM 39.2 °F 31.2 °F 30.2 °F 70% 30.30 in 10.0 mi SE 13.8 mph - N/A   Mostly Cloudy
11:55 AM 41.0 °F 33.9 °F 30.2 °F 65% 30.30 in 10.0 mi SE 12.7 mph 17.3 mph N/A   Overcast
12:15 PM 41.0 °F 33.9 °F 30.2 °F 65% 30.30 in 10.0 mi SE 12.7 mph - N/A   Overcast
12:35 PM 44.6 °F 39.2 °F 30.2 °F 57% 30.29 in 10.0 mi SSE 10.4 mph - N/A   Overcast
12:55 PM 44.6 °F 39.2 °F 30.2 °F 57% 30.28 in 10.0 mi SE 10.4 mph - N/A   Overcast
1:15 PM 46.4 °F 43.5 °F 30.2 °F 53% 30.27 in 10.0 mi South 5.8 mph - N/A   Mostly Cloudy
1:35 PM 46.4 °F 41.9 °F 30.2 °F 53% 30.27 in 10.0 mi SE 9.2 mph - N/A   Partly Cloudy
1:55 PM 46.4 °F 41.9 °F 30.2 °F 53% 30.26 in 10.0 mi SE 9.2 mph - N/A   Mostly Cloudy
2:15 PM 48.2 °F - 30.2 °F 50% 30.26 in 10.0 mi SE 9.2 mph - N/A   Overcast
2:35 PM 50.0 °F - 30.2 °F 47% 30.25 in 10.0 mi South 9.2 mph - N/A   Overcast
2:55 PM 48.2 °F - 32.0 °F 54% 30.25 in 10.0 mi SE 11.5 mph - N/A   Overcast
3:15 PM 46.4 °F 41.5 °F 32.0 °F 57% 30.25 in 10.0 mi SE 10.4 mph - N/A   Overcast
3:35 PM 48.2 °F - 32.0 °F 54% 30.24 in 10.0 mi SE 9.2 mph - N/A   Overcast
3:55 PM 46.4 °F 42.9 °F 32.0 °F 57% 30.24 in 10.0 mi SE 6.9 mph - N/A   Mostly Cloudy
4:15 PM 48.2 °F - 32.0 °F 54% 30.24 in 10.0 mi SE 5.8 mph - N/A   Overcast
4:35 PM 50.0 °F - 32.0 °F 50% 30.23 in 10.0 mi ESE 9.2 mph - N/A   Mostly Cloudy
4:55 PM 48.2 °F - 32.0 °F 54% 30.23 in 10.0 mi ESE 5.8 mph - N/A   Partly Cloudy
5:15 PM 50.0 °F - 32.0 °F 50% 30.22 in 10.0 mi ESE 4.6 mph - N/A   Partly Cloudy
5:35 PM 48.2 °F - 33.8 °F 58% 30.22 in 10.0 mi East 10.4 mph - N/A   Partly Cloudy
5:55 PM 46.4 °F 40.4 °F 32.0 °F 57% 30.20 in 10.0 mi East 13.8 mph - N/A   Clear
6:15 PM 46.4 °F 40.1 °F 30.2 °F 53% 30.20 in 10.0 mi East 15.0 mph - N/A   Mostly Cloudy
6:35 PM 46.4 °F 40.7 °F 30.2 °F 53% 30.19 in 10.0 mi East 12.7 mph - N/A   Mostly Cloudy
6:55 PM 44.6 °F 38.4 °F 30.2 °F 57% 30.18 in 10.0 mi East 12.7 mph - N/A   Scattered Clouds
7:15 PM 44.6 °F 39.7 °F 30.2 °F 57% 30.17 in 10.0 mi East 9.2 mph - N/A   Clear
7:35 PM 44.6 °F 39.7 °F 30.2 °F 57% 30.18 in 10.0 mi East 9.2 mph - N/A   Clear
7:55 PM 44.6 °F 39.2 °F 30.2 °F 57% 30.17 in 10.0 mi East 10.4 mph - N/A   Clear
8:15 PM 42.8 °F 37.5 °F 28.4 °F 57% 30.17 in 10.0 mi East 9.2 mph - N/A   Clear
8:35 PM 42.8 °F 38.0 °F 28.4 °F 57% 30.16 in 10.0 mi East 8.1 mph - N/A   Clear
8:55 PM 42.8 °F 38.0 °F 28.4 °F 57% 30.16 in 10.0 mi East 8.1 mph - N/A   Clear
9:15 PM 41.0 °F 35.2 °F 28.4 °F 61% 30.16 in 10.0 mi East 9.2 mph - N/A   Clear
9:35 PM 39.2 °F 32.5 °F 28.4 °F 65% 30.15 in 10.0 mi East 10.4 mph - N/A   Clear
9:55 PM 39.2 °F 32.5 °F 30.2 °F 70% 30.15 in 10.0 mi East 10.4 mph - N/A   Clear
10:15 PM 39.2 °F 32.5 °F 30.2 °F 70% 30.15 in 10.0 mi East 10.4 mph - N/A   Clear
10:35 PM 39.2 °F 32.5 °F 30.2 °F 70% 30.15 in 10.0 mi East 10.4 mph - N/A   Partly Cloudy
10:55 PM 39.2 °F 32.5 °F 32.0 °F 75% 30.15 in 10.0 mi ESE 10.4 mph - N/A   Partly Cloudy
11:15 PM 39.2 °F 33.0 °F 32.0 °F 75% 30.15 in 10.0 mi East 9.2 mph - N/A   Scattered Clouds
11:35 PM 39.2 °F 33.0 °F 32.0 °F 75% 30.14 in 10.0 mi East 9.2 mph - N/A   Overcast
11:55 PM 39.2 °F 32.5 °F 33.8 °F 81% 30.14 in 10.0 mi ESE 10.4 mph - N/A   Overcast